• In Belarus
  • List of Countries
  • For 7 days
  • Water Temperature
  • Satellite Maps
  • Weather Map
  • Weather Widgets
  • user-avatar
    Login

    Hourly Weather Offenbach am Main

    Today, 12 December, Tuesday

    Time Temperature Precipitation Wind Pressure Humidity
    00:00 +5°C° 0 mm 5 mps 730 mmHg 81%
    01:00 +5°C° 0 mm 5 mps 731 mmHg 84%
    02:00 +3°C° 0.1 mm 6 mps 732 mmHg 82%
    03:00 +2°C° 0.1 mm 6 mps 733 mmHg 81%
    04:00 +2°C° 0.1 mm 7 mps 735 mmHg 80%
    05:00 0°C° 0 mm 7 mps 736 mmHg 80%
    06:00 +1°C° 0 mm 6 mps 738 mmHg 80%
    07:00 0°C° 0 mm 5 mps 740 mmHg 81%
    08:00 +1°C° 0 mm 5 mps 742 mmHg 80%
    09:00 +1°C° 0 mm 5 mps 743 mmHg 80%
    10:00 +1°C° 0 mm 5 mps 744 mmHg 79%
    11:00 +1°C° 0 mm 5 mps 745 mmHg 78%
    12:00 +2°C° 0 mm 5 mps 746 mmHg 77%
    13:00 +2°C° 0 mm 5 mps 747 mmHg 76%
    14:00 +2°C° 0.1 mm 5 mps 747 mmHg 77%
    15:00 +1°C° 0.1 mm 4 mps 748 mmHg 78%
    16:00 +1°C° 0.1 mm 4 mps 748 mmHg 79%
    17:00 +1°C° 0 mm 4 mps 749 mmHg 80%
    18:00 +1°C° 0 mm 3 mps 750 mmHg 81%
    19:00 +1°C° 0 mm 3 mps 751 mmHg 82%
    20:00 +1°C° 0 mm 3 mps 751 mmHg 83%
    21:00 0°C° 0 mm 3 mps 752 mmHg 85%
    22:00 +1°C° 0 mm 2 mps 752 mmHg 86%
    23:00 +1°C° 0 mm 2 mps 752 mmHg 87%

    Tomorrow, 13 December, Wednesday

    Time Temperature Precipitation Wind Pressure Humidity
    00:00 -1°C° 0 mm 2 mps 753 mmHg 89%
    01:00 -1°C° 0 mm 2 mps 753 mmHg 91%
    02:00 -1°C° 0 mm 2 mps 753 mmHg 91%
    03:00 -1°C° 0 mm 3 mps 752 mmHg 92%
    04:00 -1°C° 0 mm 3 mps 752 mmHg 93%
    05:00 -1°C° 0 mm 3 mps 752 mmHg 91%
    06:00 -1°C° 0 mm 4 mps 752 mmHg 89%
    07:00 -1°C° 0 mm 4 mps 751 mmHg 88%
    08:00 0°C° 0 mm 5 mps 751 mmHg 85%
    09:00 0°C° 0 mm 5 mps 750 mmHg 82%
    10:00 +1°C° 0 mm 5 mps 750 mmHg 80%
    11:00 +1°C° 0.1 mm 6 mps 749 mmHg 78%
    12:00 +2°C° 0.1 mm 6 mps 748 mmHg 75%
    13:00 +2°C° 0.1 mm 6 mps 747 mmHg 73%
    14:00 +2°C° 0.6 mm 6 mps 746 mmHg 76%
    15:00 +2°C° 0.6 mm 6 mps 745 mmHg 78%
    16:00 +2°C° 0.6 mm 6 mps 744 mmHg 81%
    17:00 +2°C° 0.9 mm 6 mps 743 mmHg 83%
    18:00 +3°C° 0.9 mm 6 mps 742 mmHg 84%
    19:00 +3°C° 0.9 mm 6 mps 742 mmHg 86%
    20:00 +3°C° 0.2 mm 6 mps 740 mmHg 86%
    21:00 +4°C° 0.2 mm 6 mps 739 mmHg 86%
    22:00 +4°C° 0.2 mm 7 mps 738 mmHg 86%
    23:00 +5°C° 0.8 mm 7 mps 738 mmHg 85%

    Day after tomorrow, 14 December, Thursday

    Time Temperature Precipitation Wind Pressure Humidity
    00:00 +5°C° 0.8 mm 7 mps 738 mmHg 84%
    01:00 +5°C° 0.8 mm 7 mps 737 mmHg 84%
    02:00 +5°C° 0.4 mm 7 mps 737 mmHg 82%
    03:00 +4°C° 0.4 mm 6 mps 737 mmHg 79%
    04:00 +3°C° 0.4 mm 6 mps 737 mmHg 77%
    05:00 +2°C° 0.2 mm 6 mps 738 mmHg 73%
    06:00 +2°C° 0.2 mm 6 mps 739 mmHg 69%
    07:00 +1°C° 0.2 mm 6 mps 739 mmHg 66%
    08:00 +1°C° 0 mm 6 mps 740 mmHg 66%
    09:00 +1°C° 0 mm 6 mps 741 mmHg 66%
    10:00 +1°C° 0 mm 5 mps 742 mmHg 67%
    11:00 +2°C° 0 mm 5 mps 741 mmHg 67%
    12:00 +3°C° 0 mm 5 mps 741 mmHg 67%
    13:00 +5°C° 0 mm 5 mps 740 mmHg 68%
    14:00 +3°C° 0.6 mm 5 mps 739 mmHg 73%
    15:00 +4°C° 0.6 mm 4 mps 737 mmHg 78%
    16:00 +4°C° 0.6 mm 4 mps 736 mmHg 84%
    17:00 +4°C° 2.4 mm 4 mps 735 mmHg 85%
    18:00 +3°C° 2.4 mm 5 mps 734 mmHg 86%
    19:00 +5°C° 2.4 mm 5 mps 732 mmHg 87%
    20:00 +3°C° 0.3 mm 6 mps 732 mmHg 84%
    21:00 +3°C° 0.3 mm 6 mps 733 mmHg 81%
    22:00 +3°C° 0.3 mm 6 mps 733 mmHg 79%
    23:00 +2°C° 0 mm 6 mps 734 mmHg 78%

    15 December, Friday

    Time Temperature Precipitation Wind Pressure Humidity
    00:00 +2°C° 0 mm 6 mps 735 mmHg 77%
    01:00 +1°C° 0 mm 6 mps 736 mmHg 77%
    02:00 +1°C° 0 mm 5 mps 736 mmHg 78%
    03:00 0°C° 0 mm 4 mps 737 mmHg 79%
    04:00 0°C° 0 mm 4 mps 738 mmHg 80%
    05:00 +1°C° 0 mm 3 mps 738 mmHg 82%
    06:00 +1°C° 0 mm 3 mps 738 mmHg 84%
    07:00 +1°C° 0 mm 3 mps 738 mmHg 86%
    08:00 +2°C° 0.2 mm 3 mps 739 mmHg 86%
    09:00 +1°C° 0.2 mm 4 mps 739 mmHg 85%
    10:00 +3°C° 0.2 mm 4 mps 739 mmHg 84%
    11:00 +3°C° 0.2 mm 4 mps 739 mmHg 83%
    12:00 +2°C° 0.2 mm 5 mps 739 mmHg 82%
    13:00 +2°C° 0.2 mm 5 mps 739 mmHg 81%
    14:00 +2°C° 0.5 mm 5 mps 739 mmHg 81%
    15:00 +3°C° 0.5 mm 4 mps 739 mmHg 81%
    16:00 +3°C° 0.5 mm 4 mps 739 mmHg 82%
    17:00 +3°C° 0.3 mm 4 mps 739 mmHg 83%
    18:00 +3°C° 0.3 mm 3 mps 739 mmHg 85%
    19:00 +3°C° 0.3 mm 3 mps 740 mmHg 86%
    20:00 +2°C° 0.4 mm 3 mps 740 mmHg 87%
    21:00 +3°C° 0.4 mm 2 mps 741 mmHg 89%
    22:00 +3°C° 0.4 mm 2 mps 741 mmHg 90%
    23:00 +2°C° 0.1 mm 2 mps 742 mmHg 90%

    16 December, Saturday

    Time Temperature Precipitation Wind Pressure Humidity
    00:00 +2°C° 0.1 mm 2 mps 743 mmHg 90%
    01:00 0°C° 0.1 mm 3 mps 743 mmHg 90%
    02:00 0°C° 0 mm 3 mps 744 mmHg 90%
    03:00 +1°C° 0 mm 2 mps 744 mmHg 91%
    04:00 +1°C° 0 mm 2 mps 745 mmHg 91%
    05:00 +1°C° 0 mm 2 mps 745 mmHg 91%
    06:00 +1°C° 0 mm 2 mps 746 mmHg 90%
    07:00 0°C° 0 mm 3 mps 746 mmHg 90%
    08:00 +1°C° 0.1 mm 3 mps 747 mmHg 89%
    09:00 +1°C° 0.1 mm 3 mps 748 mmHg 89%
    10:00 +1°C° 0.1 mm 3 mps 748 mmHg 88%
    11:00 0°C° 0.2 mm 4 mps 748 mmHg 88%
    12:00 +1°C° 0.2 mm 4 mps 749 mmHg 87%
    13:00 +1°C° 0.2 mm 4 mps 749 mmHg 87%
    14:00 +1°C° 0.2 mm 4 mps 749 mmHg 87%
    15:00 +1°C° 0.2 mm 4 mps 749 mmHg 87%
    16:00 +2°C° 0.2 mm 3 mps 750 mmHg 87%
    17:00 +2°C° 0.1 mm 3 mps 750 mmHg 88%
    18:00 +1°C° 0.1 mm 3 mps 751 mmHg 89%
    19:00 +1°C° 0.1 mm 3 mps 751 mmHg 89%
    20:00 0°C° 0 mm 3 mps 752 mmHg 90%
    21:00 0°C° 0 mm 3 mps 752 mmHg 90%
    22:00 0°C° 0 mm 3 mps 752 mmHg 91%
    23:00 0°C° 0 mm 3 mps 753 mmHg 91%

    17 December, Sunday

    Time Temperature Precipitation Wind Pressure Humidity
    00:00 -1°C° 0 mm 2 mps 753 mmHg 91%
    01:00 -1°C° 0 mm 2 mps 754 mmHg 91%
    02:00 -1°C° 0 mm 2 mps 754 mmHg 91%
    03:00 -1°C° 0 mm 2 mps 754 mmHg 91%
    04:00 -1°C° 0 mm 2 mps 754 mmHg 91%
    05:00 -1°C° 0 mm 2 mps 755 mmHg 91%
    06:00 +1°C° 0 mm 2 mps 755 mmHg 91%
    07:00 +1°C° 0 mm 2 mps 756 mmHg 91%
    08:00 +1°C° 0 mm 2 mps 756 mmHg 91%
    09:00 +1°C° 0 mm 2 mps 757 mmHg 90%
    10:00 +1°C° 0 mm 2 mps 757 mmHg 89%
    11:00 +2°C° 0 mm 2 mps 757 mmHg 88%
    12:00 +1°C° 0 mm 3 mps 758 mmHg 87%
    13:00 +2°C° 0 mm 3 mps 758 mmHg 85%
    14:00 +3°C° 0 mm 2 mps 758 mmHg 86%
    15:00 +2°C° 0 mm 2 mps 758 mmHg 86%
    16:00 +2°C° 0 mm 2 mps 759 mmHg 87%
    17:00 +2°C° 0 mm 2 mps 759 mmHg 88%
    18:00 +2°C° 0 mm 2 mps 760 mmHg 89%
    19:00 +2°C° 0 mm 1 mps 760 mmHg 90%
    20:00 +2°C° 0 mm 1 mps 760 mmHg 90%
    21:00 +2°C° 0 mm 1 mps 761 mmHg 90%
    22:00 +2°C° 0 mm 1 mps 761 mmHg 90%
    23:00 +1°C° 0 mm 1 mps 761 mmHg 91%
    Show more